• In Hungary
  • List of Countries
  • For 7 days
  • Water Temperature
  • Satellite Maps
  • Weather Map
  • News
  • Weather Widgets
  • user-avatar
    Login

    Hourly Weather Innsbruck

    Today, 24 January, Wednesday

    Time Temperature Precipitation Wind Pressure Humidity
    00:00 -9°C° 0 mm 2 mps 597 mmHg 64%
    01:00 -8°C° 0 mm 2 mps 598 mmHg 60%
    02:00 -8°C° 0 mm 2 mps 598 mmHg 60%
    03:00 -8°C° 0 mm 2 mps 598 mmHg 60%
    04:00 -8°C° 0 mm 2 mps 598 mmHg 60%
    05:00 -8°C° 0 mm 2 mps 598 mmHg 59%
    06:00 -7°C° 0 mm 1 mps 598 mmHg 58%
    07:00 -7°C° 0 mm 1 mps 598 mmHg 56%
    08:00 -4°C° 0 mm 1 mps 598 mmHg 60%
    09:00 -2°C° 0 mm 1 mps 599 mmHg 63%
    10:00 -1°C° 0 mm 1 mps 600 mmHg 66%
    11:00 0°C° 0 mm 1 mps 600 mmHg 73%
    12:00 -1°C° 0 mm 2 mps 600 mmHg 81%
    13:00 +1°C° 0 mm 2 mps 600 mmHg 88%
    14:00 -1°C° 0 mm 2 mps 599 mmHg 86%
    15:00 -1°C° 0 mm 2 mps 599 mmHg 84%
    16:00 -2°C° 0 mm 2 mps 598 mmHg 83%
    17:00 -3°C° 0 mm 2 mps 598 mmHg 79%
    18:00 -4°C° 0 mm 2 mps 597 mmHg 75%
    19:00 -7°C° 0 mm 3 mps 597 mmHg 72%
    20:00 -7°C° 0 mm 3 mps 597 mmHg 71%
    21:00 -7°C° 0 mm 3 mps 597 mmHg 69%
    22:00 -8°C° 0 mm 3 mps 596 mmHg 68%
    23:00 -8°C° 0 mm 3 mps 596 mmHg 68%

    Tomorrow, 25 January, Thursday

    Time Temperature Precipitation Wind Pressure Humidity
    00:00 -8°C° 0 mm 3 mps 596 mmHg 68%
    01:00 -8°C° 0 mm 3 mps 596 mmHg 67%
    02:00 -7°C° 0 mm 2 mps 596 mmHg 68%
    03:00 -7°C° 0 mm 2 mps 596 mmHg 68%
    04:00 -7°C° 0 mm 2 mps 595 mmHg 68%
    05:00 -7°C° 0 mm 2 mps 595 mmHg 69%
    06:00 -7°C° 0 mm 2 mps 595 mmHg 69%
    07:00 -7°C° 0 mm 2 mps 595 mmHg 70%
    08:00 -6°C° 0 mm 2 mps 595 mmHg 72%
    09:00 -5°C° 0 mm 2 mps 595 mmHg 74%
    10:00 -5°C° 0 mm 3 mps 596 mmHg 76%
    11:00 -4°C° 0 mm 3 mps 595 mmHg 79%
    12:00 -2°C° 0 mm 3 mps 595 mmHg 83%
    13:00 -1°C° 0 mm 3 mps 595 mmHg 86%
    14:00 -2°C° 0 mm 3 mps 594 mmHg 87%
    15:00 -2°C° 0 mm 3 mps 594 mmHg 88%
    16:00 -4°C° 0 mm 3 mps 593 mmHg 90%
    17:00 -5°C° 0 mm 3 mps 593 mmHg 90%
    18:00 -5°C° 0 mm 3 mps 593 mmHg 90%
    19:00 -6°C° 0 mm 3 mps 593 mmHg 90%
    20:00 -6°C° 0 mm 3 mps 593 mmHg 89%
    21:00 -6°C° 0 mm 3 mps 593 mmHg 89%
    22:00 -6°C° 0 mm 3 mps 592 mmHg 89%
    23:00 -6°C° 0 mm 3 mps 592 mmHg 89%

    Day after tomorrow, 26 January, Friday

    Time Temperature Precipitation Wind Pressure Humidity
    00:00 -6°C° 0 mm 3 mps 592 mmHg 89%
    01:00 -6°C° 0 mm 3 mps 591 mmHg 89%
    02:00 -6°C° 0 mm 3 mps 591 mmHg 89%
    03:00 -6°C° 0 mm 3 mps 591 mmHg 89%
    04:00 -6°C° 0 mm 3 mps 591 mmHg 89%
    05:00 -6°C° 0.1 mm 3 mps 591 mmHg 89%
    06:00 -7°C° 0.1 mm 3 mps 591 mmHg 89%
    07:00 -6°C° 0.1 mm 2 mps 591 mmHg 90%
    08:00 -5°C° 0.1 mm 2 mps 591 mmHg 90%
    09:00 -5°C° 0.1 mm 2 mps 591 mmHg 90%
    10:00 -4°C° 0.1 mm 2 mps 592 mmHg 90%
    11:00 -3°C° 0.1 mm 2 mps 592 mmHg 91%
    12:00 -3°C° 0.1 mm 2 mps 592 mmHg 92%
    13:00 -2°C° 0.1 mm 2 mps 592 mmHg 93%
    14:00 -3°C° 0.1 mm 2 mps 592 mmHg 93%
    15:00 -3°C° 0.1 mm 2 mps 592 mmHg 94%
    16:00 -3°C° 0.1 mm 2 mps 592 mmHg 94%
    17:00 -4°C° 0.1 mm 2 mps 592 mmHg 95%
    18:00 -5°C° 0.1 mm 2 mps 592 mmHg 95%
    19:00 -6°C° 0.1 mm 2 mps 592 mmHg 95%
    20:00 -6°C° 0.2 mm 2 mps 592 mmHg 95%
    21:00 -4°C° 0.2 mm 1 mps 593 mmHg 95%
    22:00 -6°C° 0.2 mm 1 mps 593 mmHg 95%
    23:00 -6°C° 0.3 mm 1 mps 593 mmHg 95%

    27 January, Saturday

    Time Temperature Precipitation Wind Pressure Humidity
    00:00 -6°C° 0.3 mm 1 mps 593 mmHg 95%
    01:00 -6°C° 0.3 mm 1 mps 594 mmHg 95%
    02:00 -6°C° 0.4 mm 1 mps 594 mmHg 95%
    03:00 -4°C° 0.4 mm 1 mps 594 mmHg 95%
    04:00 -5°C° 0.4 mm 0 mps 594 mmHg 95%
    05:00 -6°C° 0.2 mm 1 mps 594 mmHg 95%
    06:00 -6°C° 0.2 mm 1 mps 595 mmHg 95%
    07:00 -6°C° 0.2 mm 1 mps 595 mmHg 95%
    08:00 -4°C° 0.1 mm 1 mps 596 mmHg 94%
    09:00 -5°C° 0.1 mm 0 mps 597 mmHg 93%
    10:00 -4°C° 0.1 mm 0 mps 597 mmHg 92%
    11:00 -2°C° 0.1 mm 1 mps 598 mmHg 93%
    12:00 -2°C° 0.1 mm 1 mps 598 mmHg 94%
    13:00 -1°C° 0.1 mm 1 mps 599 mmHg 94%
    14:00 -2°C° 0.1 mm 1 mps 599 mmHg 94%
    15:00 -2°C° 0.1 mm 1 mps 599 mmHg 94%
    16:00 -2°C° 0.1 mm 1 mps 599 mmHg 95%
    17:00 -3°C° 0.1 mm 0 mps 600 mmHg 95%
    18:00 -4°C° 0.1 mm 0 mps 600 mmHg 95%
    19:00 -5°C° 0.1 mm 0 mps 600 mmHg 95%
    20:00 -6°C° 0 mm 0 mps 600 mmHg 94%
    21:00 -6°C° 0 mm 1 mps 600 mmHg 93%
    22:00 -7°C° 0 mm 1 mps 600 mmHg 92%
    23:00 -7°C° 0 mm 1 mps 600 mmHg 90%

    28 January, Sunday

    Time Temperature Precipitation Wind Pressure Humidity
    00:00 -7°C° 0 mm 1 mps 600 mmHg 88%
    01:00 -7°C° 0 mm 1 mps 600 mmHg 87%
    02:00 -7°C° 0 mm 1 mps 600 mmHg 86%
    03:00 -8°C° 0 mm 1 mps 600 mmHg 84%
    04:00 -8°C° 0 mm 1 mps 600 mmHg 83%
    05:00 -8°C° 0 mm 1 mps 601 mmHg 82%
    06:00 -8°C° 0 mm 1 mps 601 mmHg 81%
    07:00 -8°C° 0 mm 1 mps 601 mmHg 81%
    08:00 -6°C° 0 mm 1 mps 602 mmHg 80%
    09:00 -4°C° 0 mm 1 mps 603 mmHg 79%
    10:00 -2°C° 0 mm 1 mps 604 mmHg 78%
    11:00 -1°C° 0 mm 1 mps 604 mmHg 81%
    12:00 0°C° 0 mm 1 mps 604 mmHg 84%
    13:00 0°C° 0 mm 1 mps 604 mmHg 87%
    14:00 0°C° 0 mm 1 mps 604 mmHg 88%
    15:00 0°C° 0 mm 1 mps 604 mmHg 89%
    16:00 -2°C° 0 mm 0 mps 603 mmHg 90%
    17:00 -2°C° 0 mm 1 mps 603 mmHg 88%
    18:00 -4°C° 0 mm 1 mps 603 mmHg 86%
    19:00 -6°C° 0 mm 1 mps 602 mmHg 84%
    20:00 -7°C° 0 mm 1 mps 603 mmHg 81%
    21:00 -7°C° 0 mm 1 mps 603 mmHg 78%
    22:00 -7°C° 0 mm 1 mps 603 mmHg 75%
    23:00 -7°C° 0 mm 1 mps 603 mmHg 72%

    29 January, Monday

    Time Temperature Precipitation Wind Pressure Humidity
    00:00 -7°C° 0 mm 1 mps 603 mmHg 69%
    01:00 -7°C° 0 mm 1 mps 603 mmHg 67%
    02:00 -7°C° 0 mm 1 mps 603 mmHg 64%
    03:00 -7°C° 0 mm 1 mps 602 mmHg 62%
    04:00 -7°C° 0 mm 1 mps 602 mmHg 60%
    05:00 -7°C° 0 mm 1 mps 602 mmHg 58%
    06:00 -7°C° 0 mm 1 mps 602 mmHg 56%
    07:00 -7°C° 0 mm 1 mps 602 mmHg 54%
    08:00 -4°C° 0 mm 1 mps 603 mmHg 56%
    09:00 -3°C° 0 mm 1 mps 604 mmHg 58%
    10:00 -1°C° 0 mm 1 mps 604 mmHg 59%
    11:00 0°C° 0 mm 1 mps 604 mmHg 65%
    12:00 0°C° 0 mm 0 mps 604 mmHg 71%
    13:00 0°C° 0 mm 0 mps 604 mmHg 76%
    14:00 0°C° 0 mm 0 mps 604 mmHg 78%
    15:00 -1°C° 0 mm 0 mps 603 mmHg 79%
    16:00 -1°C° 0 mm 0 mps 603 mmHg 80%
    17:00 -2°C° 0 mm 0 mps 602 mmHg 80%
    18:00 -3°C° 0 mm 1 mps 602 mmHg 79%
    19:00 -4°C° 0 mm 1 mps 601 mmHg 78%
    20:00 -4°C° 0 mm 1 mps 601 mmHg 77%
    21:00 -4°C° 0 mm 1 mps 601 mmHg 76%
    22:00 -6°C° 0 mm 1 mps 601 mmHg 75%
    23:00 -6°C° 0 mm 1 mps 600 mmHg 74%
    Show more